Probability
24 23 23 22 21 18 17 17 16 17 20 21 20 19 18 18 17 15 13 13 13 13 11 11 11 11 11 11 13 14 16 16 14 13 17 20 19 18 15 12 10 7 6
24 23 23 21 17 14 14 14 15 18 20 19 17 16 17 17 17 15 13 13 15 15 14 12 12 10 10 11 11 11 14 16 17 16 17 19 19 17 16 13 10 7 5
23 23 22 19 14 12 11 12 14 16 17 16 14 14 17 19 19 17 14 14 18 20 19 15 12 10 10 11 10 11 13 16 19 19 17 16 16 15 14 13 10 7 5
22 22 21 18 14 12 12 12 12 12 12 12 13 15 18 19 19 19 16 16 20 23 21 16 12 10 12 12 12 13 14 16 19 18 16 14 13 13 13 12 10 8 7
23 23 23 21 18 15 14 14 13 10 8 10 13 15 16 15 15 16 16 17 19 20 19 15 11 11 12 13 13 13 14 16 18 17 16 15 14 13 13 12 11 10 10
27 26 27 26 24 20 17 16 16 13 12 13 15 15 15 12 9 9 12 14 15 14 14 12 10 10 12 13 12 10 10 13 15 16 16 16 15 14 13 12 12 11 12
29 29 30 30 29 25 21 19 20 20 20 21 21 18 15 11 6 4 6 9 10 11 11 11 10 10 12 15 13 10 9 10 12 15 16 16 16 15 14 13 12 13 13
32 31 31 31 30 28 25 23 24 24 25 26 27 23 17 11 5 2 2 5 8 10 10 11 11 12 12 14 15 14 13 11 11 13 15 15 15 15 15 14 13 12 12
32 32 30 29 28 26 25 25 24 24 23 25 26 25 20 14 7 2 1 4 7 8 10 11 12 12 11 11 15 17 16 14 12 12 13 13 13 13 13 14 14 12 10
30 31 29 27 26 24 24 24 23 21 20 19 20 22 21 18 11 4 1 3 6 8 10 11 11 10 8 7 12 16 16 15 13 13 13 13 12 12 12 14 15 13 10
29 28 26 24 24 23 24 24 22 19 16 15 15 16 17 17 11 4 2 3 5 8 9 10 10 8 4 3 6 11 13 12 13 14 15 15 15 16 15 16 16 16 14
30 27 23 20 18 17 20 22 20 16 12 11 11 11 11 11 8 4 2 2 4 6 8 9 9 5 1 0 2 5 7 8 11 14 16 17 18 19 20 19 19 19 17
27 24 19 15 13 13 15 17 15 13 10 8 8 8 8 7 6 4 3 1 1 3 5 6 5 2 0 0 1 2 3 6 9 13 15 17 18 20 21 21 20 18 16
21 19 15 13 12 12 14 13 12 11 9 8 7 7 7 7 6 5 5 3 1 2 4 5 3 2 1 2 4 5 6 7 9 11 13 15 17 19 20 20 19 16 14
18 15 12 11 10 11 11 11 10 9 8 8 7 7 7 6 5 5 5 4 3 3 4 4 4 3 3 4 7 9 9 9 9 10 12 14 15 17 18 19 18 16 14
16 13 10 9 9 8 8 8 8 7 6 5 4 4 4 4 3 3 4 5 4 4 4 4 4 5 6 6 8 10 11 10 10 10 11 12 13 15 16 17 17 16 14
14 11 8 7 7 7 7 6 6 6 5 4 2 1 2 2 1 1 2 3 3 3 3 3 4 5 6 6 7 8 9 9 9 10 10 11 11 13 14 16 16 16 15
12 9 6 5 8 8 7 7 6 6 6 5 3 1 0 0 0 0 1 1 2 3 3 3 3 4 6 6 6 6 8 8 8 8 9 10 10 10 11 12 14 14 14
10 8 5 5 7 8 8 7 7 6 6 5 4 2 1 1 1 1 1 2 3 3 3 4 3 4 4 4 4 5 7 7 7 7 9 10 9 8 8 8 9 9 10
9 7 5 4 4 5 6 7 7 6 5 4 2 2 2 2 3 3 3 3 3 3 3 3 3 3 3 3 4 6 7 6 7 8 8 8 8 8 7 5 5 6 7
9 8 6 5 4 4 5 6 6 5 5 3 2 2 2 2 3 4 4 4 3 2 2 2 1 1 2 2 4 6 7 6 7 8 8 7 8 8 7 5 4 5 6
8 8 8 7 6 6 6 5 4 3 3 3 2 2 1 1 2 2 2 2 2 1 1 1 1 1 1 1 2 4 5 5 6 6 6 6 7 8 6 5 5 5 6
6 7 9 9 8 7 6 4 3 1 1 1 1 2 1 1 2 2 1 0 0 0 1 1 2 2 1 1 1 1 1 2 3 4 5 6 6 6 6 5 4 5 6
5 6 7 8 9 8 6 4 3 1 0 0 0 1 1 2 2 2 1 0 0 0 0 1 2 3 2 1 1 1 1 1 3 4 5 6 5 5 5 4 2 3 4
4 4 5 7 7 7 5 4 3 2 1 1 0 0 1 1 1 1 0 0 0 0 1 1 2 2 2 1 1 1 2 2 2 3 4 4 4 5 5 3 1 1 2
3 4 4 5 5 6 5 4 3 3 2 2 1 0 0 0 0 0 0 0 0 0 1 1 1 1 1 0 0 1 1 1 1 2 3 3 3 4 5 3 1 0 1
Wind_Speed
4 3 2 2 2 1 1 1 2 2 1 2 1 1 1 1 1 1 1 0 0 1 1 0 1 1 2 2 1 1 1 1 0 0 1 1 1 1 2 1 2 3 4
3 3 2 2 2 1 1 1 2 1 1 1 1 1 1 1 1 1 2 1 0 0 1 1 1 1 1 2 2 2 1 0 0 1 1 1 1 1 1 1 1 2 3
4 3 3 2 2 2 1 1 1 1 1 1 1 1 1 1 1 1 1 1 0 0 0 0 1 1 1 1 2 2 2 2 0 1 1 1 0 0 0 1 1 1 2
4 3 3 2 1 1 1 1 1 1 0 0 1 1 1 1 1 1 1 1 1 1 1 1 1 0 0 1 1 2 2 2 1 1 1 1 1 0 0 1 1 1 1
3 3 3 2 1 1 1 1 1 0 1 1 1 1 1 1 1 1 1 1 1 1 1 1 0 1 2 1 1 2 2 2 2 2 1 1 0 0 1 1 2 2 2
2 2 2 2 1 1 1 1 1 1 1 1 1 1 2 2 2 2 2 1 1 1 1 1 1 1 1 2 1 1 2 2 2 2 2 2 1 1 1 2 2 1 2
2 2 2 1 1 1 1 0 1 1 1 2 2 1 0 1 2 3 3 2 2 2 2 1 2 1 1 0 2 4 3 4 4 2 3 3 2 1 1 2 2 2 2
2 2 2 2 1 1 1 1 1 1 1 2 2 1 1 0 1 1 2 2 2 2 2 2 2 1 2 2 3 3 3 3 3 3 3 3 3 2 2 3 3 3 3
2 2 1 1 1 1 1 1 1 2 2 2 2 2 2 1 1 1 1 2 2 3 3 2 2 1 2 2 2 3 3 3 4 4 5 5 6 5 3 2 2 2 3
2 2 1 1 1 1 1 1 1 2 2 2 2 2 2 2 2 2 2 2 2 3 2 2 1 1 1 1 2 3 4 4 4 5 5 6 6 6 7 4 3 2 2
1 1 1 1 1 1 1 1 1 2 2 2 2 2 3 3 3 3 3 2 3 3 3 2 1 2 2 3 3 4 5 5 5 5 4 4 3 3 3 4 3 3 2
1 0 0 1 1 1 1 1 1 2 3 3 3 3 3 3 3 3 4 4 4 3 3 2 1 1 3 5 5 6 7 5 4 4 3 3 2 3 3 3 3 3 3
0 0 1 1 1 1 2 2 2 2 3 3 3 2 2 1 1 3 4 4 5 4 3 4 4 4 5 5 7 8 5 4 3 4 4 3 3 3 2 2 3 2 3
0 0 1 1 2 2 2 2 2 2 2 3 3 2 2 1 0 0 1 2 3 3 3 4 4 6 6 6 5 5 4 4 4 4 4 3 2 2 2 2 2 2 2
0 1 1 1 1 2 2 1 1 1 1 2 2 3 2 2 1 2 2 2 2 2 3 3 3 3 3 3 3 3 3 3 4 4 3 3 3 2 2 2 2 2 2
0 0 1 1 1 1 1 1 1 1 1 1 1 3 3 2 1 2 3 3 3 3 2 3 3 3 3 3 3 3 3 3 3 3 3 3 3 3 2 2 2 3 3
1 1 2 1 1 2 1 1 1 1 2 2 2 2 2 2 2 2 3 4 4 3 3 4 4 4 4 4 4 3 3 3 3 3 3 3 3 3 3 2 2 3 3
1 1 1 2 2 2 2 2 2 2 1 2 2 2 2 3 3 3 3 1 2 2 3 4 3 3 3 3 4 3 3 3 2 3 2 2 3 3 3 3 3 3 2
2 1 2 2 2 2 2 2 2 2 2 2 2 1 2 2 2 2 2 2 4 3 3 4 3 3 3 3 3 3 3 3 3 2 2 3 2 3 3 2 3 3 3
1 1 2 2 2 2 2 3 2 2 2 2 2 2 1 1 2 2 2 3 3 3 3 3 3 3 3 3 3 3 3 3 3 2 2 2 2 2 3 3 3 3 3
2 1 1 2 2 2 2 3 2 2 2 2 2 2 2 3 3 3 3 2 3 3 3 3 3 3 3 2 3 3 4 3 3 3 2 2 2 2 3 3 3 2 2
2 2 1 1 2 2 3 3 3 3 3 3 2 2 3 3 3 3 2 2 2 2 3 3 3 3 2 2 2 3 3 3 3 3 3 3 2 2 2 3 3 2 2
3 3 2 1 2 2 2 2 2 3 3 3 3 2 2 3 3 3 2 3 3 2 2 2 2 2 2 2 2 2 2 2 3 3 3 3 3 3 2 3 3 3 3
3 3 3 2 2 2 2 2 3 3 3 4 3 3 3 3 3 4 3 3 3 3 2 2 2 2 3 2 2 2 2 2 3 3 4 4 4 3 3 3 3 4 3
3 3 3 3 2 2 2 3 3 3 3 3 3 3 3 3 3 4 3 3 3 3 3 2 2 2 3 3 3 3 3 3 2 3 3 3 4 4 4 4 3 3 4
3 3 3 2 3 3 3 3 3 3 3 3 3 2 2 3 3 3 3 3 4 3 3 3 3 3 3 2 3 3 1 2 3 3 3 3 4 3 3 3 3 2 3
Wind_Direction
143 145 127 137 143 124 93 72 65 47 26 20 16 17 12 354 338 328 322 12 349 322 308 344 335 343 336 332 335 349 7 11 300 330 53 82 101 98 125 176 170 165 164
133 134 130 127 115 95 82 80 81 69 23 16 0 347 331 335 330 319 315 2 10 347 335 358 334 327 349 346 340 342 348 4 178 269 242 210 175 169 163 225 197 170 170
130 126 116 112 106 98 84 68 63 57 12 7 329 319 318 314 305 320 318 331 347 329 309 285 302 338 351 330 323 331 321 316 237 247 250 202 165 134 111 270 268 219 199
129 130 122 112 103 109 98 79 58 46 351 317 311 306 303 310 344 0 327 309 325 339 317 297 288 304 297 295 285 301 309 315 305 281 266 235 183 153 183 280 291 269 260
124 133 131 127 126 123 132 153 160 163 278 299 305 299 278 272 313 347 306 264 326 323 311 293 261 144 102 39 326 322 321 322 311 300 289 302 321 76 260 255 267 264 261
133 143 132 138 147 155 173 180 183 203 258 267 264 285 294 302 11 11 352 309 270 266 276 287 226 165 164 186 235 295 303 286 295 304 301 289 291 289 272 279 278 285 285
153 151 148 148 160 187 240 232 231 232 238 250 253 261 301 341 15 19 356 326 296 276 271 280 280 298 24 268 254 246 256 264 251 251 275 282 287 287 269 280 281 278 270
162 170 178 183 188 194 250 270 268 267 262 263 258 242 200 281 0 7 332 287 283 270 257 244 244 286 303 317 285 272 257 252 249 239 242 258 261 256 253 256 267 269 264
168 174 173 178 183 211 264 279 281 275 262 254 260 246 215 198 248 309 303 273 274 276 259 259 244 247 301 319 290 279 279 278 267 262 253 252 249 249 254 267 265 266 277
177 193 185 189 204 222 248 278 283 279 279 270 259 246 230 212 223 239 257 257 265 274 262 250 233 214 268 280 271 274 275 279 287 284 265 253 240 234 227 223 233 241 271
171 189 182 185 216 222 223 242 262 278 275 267 261 250 237 226 218 227 227 246 268 269 264 252 233 201 241 259 266 266 269 279 277 270 258 242 226 223 215 217 218 221 245
120 152 172 218 257 250 230 244 254 270 272 260 254 251 250 231 211 217 216 229 261 272 274 277 267 263 262 262 259 267 277 277 270 272 265 251 231 221 222 222 222 217 218
103 166 242 246 254 247 241 240 246 254 269 273 265 255 259 245 194 208 221 236 249 260 280 300 297 277 267 255 246 254 261 257 258 263 265 258 245 225 211 213 210 210 229
113 259 266 247 247 251 246 237 251 266 277 284 289 286 274 250 261 282 259 251 248 257 281 295 283 266 268 266 256 247 240 245 249 254 263 263 255 236 224 216 210 207 222
199 258 272 273 279 262 260 264 260 280 263 273 291 295 290 288 300 307 280 268 270 272 282 274 264 256 255 256 246 241 241 243 251 259 260 263 262 255 240 223 219 215 224
281 298 291 280 284 290 288 327 346 307 337 360 342 307 310 298 252 268 280 269 258 256 267 267 266 266 265 267 271 265 251 248 255 260 261 258 254 255 254 240 230 227 233
281 302 299 304 303 297 301 296 305 339 18 343 304 297 284 290 291 276 283 283 261 242 253 262 263 263 268 268 268 271 271 262 259 263 263 262 264 261 253 241 237 236 239
301 324 321 312 309 310 312 313 315 311 308 317 303 266 262 273 277 274 280 297 278 247 256 268 275 277 277 286 287 284 284 280 269 272 274 275 271 262 250 241 243 245 243
320 358 346 334 328 327 325 318 315 323 325 323 325 319 266 273 277 273 252 261 270 276 278 280 284 290 295 296 296 295 294 296 296 288 281 276 278 276 268 258 249 249 243
321 24 354 328 335 329 321 322 326 325 324 318 321 344 350 295 283 282 250 260 273 278 284 288 293 295 296 298 298 295 297 295 294 283 281 279 280 282 278 271 259 249 243
329 338 333 321 327 330 320 319 321 314 317 323 331 335 314 281 275 270 257 252 263 276 282 287 289 287 283 282 283 284 285 287 289 290 290 287 282 283 281 276 272 264 260
311 299 300 311 314 314 313 310 313 316 324 331 333 311 296 293 302 304 302 293 277 273 271 268 276 289 300 300 296 296 295 299 305 304 306 300 288 275 278 280 274 268 263
316 309 309 305 307 307 302 316 321 322 324 328 329 321 303 303 311 317 315 313 306 292 289 295 297 305 314 314 311 305 300 304 306 304 301 295 295 292 278 266 268 273 266
316 318 313 308 308 303 303 309 312 312 314 322 327 326 325 326 319 323 323 316 309 305 306 299 296 309 323 321 315 311 322 317 308 297 292 286 284 282 278 268 262 263 259
310 323 329 317 305 309 312 313 315 315 315 320 326 334 338 336 329 327 327 322 316 317 320 315 312 310 318 331 345 347 337 323 303 304 290 279 279 277 272 271 265 270 274
320 319 322 329 330 327 320 312 312 312 309 310 318 323 324 322 318 323 333 337 329 328 330 333 348 350 354 6 2 5 342 314 301 295 288 280 282 282 284 282 278 270 269